Content
SEND FEEDBACK

Daily
Averages
Monthly
Summary
United States of America

SADLER, TEXAS


Home > North America > United States > Texas
Elevation: 720 feet     Latitude: 33 48N     Longitude: 096 51W

WEATHER
 
SELECT A DAY
Number of Records: 280,094;   Date Range: 1/1/95 - 11/19/14
 
SHARE

PRINT THIS DATA

[ ← Previous Day ]
WEATHER ALMANAC - JANUARY 23, 2013
[ Next Day → ]
[ °C ]   °F
Weather ElementAverageHighLow
Temperature55.9 °F71.6 °F (2:35 pm)41 °F (1:55 am)
Dewpoint46.9 °F53.6 °F (8:35 pm)37.4 °F (1:55 am)
Humidity73.8 %94 % (10:55 pm)46 % (2:35 pm)
Barometer30.20 in30.27 in (9:55 am)30.13 in (4:55 pm)
Wind Speed8.2 mph13.8 mph (10:15 am)
Wind Gust17.3 mph (2:15 pm)
Weather ElementAverage
Visibility9.8 mi
Wind DirectionSSE (160.3 °)

Weather ElementTotal
Precipitation---
Heating Degree Days8.7 (Base 65)
Growing Degree Days6.3 (Base 50)
Averaged from 71 records on January 23, 2013
WEATHER CONDITIONS BREAKOUT
WIND DIRECTION BREAKOUT
WEATHER BY HOUR - JANUARY 23, 2013
[ °C ]   °F
Local TimeTemperatureDewpointHumidityBarometerVisibilityWind DirectionWind SpeedGust SpeedPrecipitationEventsConditions
12:35 AM46.4 °F39.2 °F76 %30.22 in10.0 miESE (110°)8.1 mphClear
12:55 AM44.6 °F39.2 °F81 %30.22 in10.0 miEast (100°)5.8 mphClear
1:15 AM46.4 °F39.2 °F76 %30.22 in10.0 miESE (110°)6.9 mphClear
1:35 AM44.6 °F39.2 °F81 %30.22 in10.0 miEast (100°)3.5 mphClear
1:55 AM41.0 °F37.4 °F87 %30.22 in10.0 miNE (40°)3.5 mphClear
2:15 AM41.0 °F37.4 °F87 %30.22 in10.0 miEast (100°)5.8 mphClear
2:35 AM42.8 °F39.2 °F87 %30.22 in10.0 miESE (120°)6.9 mphClear
2:55 AM42.8 °F37.4 °F81 %30.22 in10.0 miENE (60°)3.5 mphClear
3:15 AM41.0 °F37.4 °F87 %30.24 in10.0 miEast (100°)5.8 mphClear
3:35 AM41.0 °F37.4 °F87 %30.24 in10.0 miEast (90°)4.6 mphScattered Clouds
3:55 AM41.0 °F37.4 °F87 %30.25 in10.0 miEast (80°)5.8 mphMostly Cloudy
4:15 AM41.0 °F37.4 °F87 %30.24 in10.0 miEast (80°)5.8 mphMostly Cloudy
4:35 AM41.0 °F37.4 °F87 %30.22 in10.0 miESE (120°)6.9 mphScattered Clouds
4:55 AM42.8 °F39.2 °F87 %30.22 in10.0 miCalmClear
5:15 AM41.0 °F37.4 °F87 %30.22 in10.0 miESE (120°)3.5 mphClear
5:35 AM42.8 °F41.0 °F93 %30.22 in10.0 miSSE (160°)8.1 mphClear
5:55 AM42.8 °F41.0 °F93 %30.23 in10.0 miSSE (150°)5.8 mphClear
6:15 AM42.8 °F41.0 °F93 %30.23 in10.0 miSouth (170°)6.9 mphClear
6:35 AM42.8 °F41.0 °F93 %30.24 in10.0 miSE (140°)3.5 mphClear
6:55 AM42.8 °F41.0 °F93 %30.25 in10.0 miSSE (150°)4.6 mphScattered Clouds
7:15 AM44.6 °F42.8 °F93 %30.24 in7.0 miSSE (160°)8.1 mphClear
7:35 AM44.6 °F42.8 °F93 %30.24 in7.0 miSSE (160°)8.1 mphClear
7:55 AM44.6 °F42.8 °F93 %30.24 in5.0 miSouth (170°)8.1 mphClear
8:15 AM46.4 °F44.6 °F93 %30.24 in7.0 miSouth (170°)6.9 mphClear
8:35 AM48.2 °F46.4 °F93 %30.24 in7.0 miSouth (170°)5.8 mphClear
8:55 AM51.8 °F48.2 °F88 %30.24 in10.0 miSSW (200°)8.1 mphClear
9:15 AM53.6 °F48.2 °F82 %30.25 in10.0 miSSW (210°)11.5 mphClear
9:35 AM55.4 °F48.2 °F77 %30.26 in10.0 miSW (220°)12.7 mphClear
9:55 AM59.0 °F48.2 °F67 %30.27 in10.0 miSW (230°)10.4 mphClear
10:15 AM59.0 °F48.2 °F67 %30.27 in10.0 miSSW (210°)13.8 mphClear
10:35 AM60.8 °F48.2 °F63 %30.27 in10.0 miSSW (210°)13.8 mphClear
10:55 AM60.8 °F50.0 °F68 %30.27 in10.0 miSSW (210°)12.7 mphClear
11:15 AM62.6 °F50.0 °F63 %30.26 in10.0 miSSW (210°)11.5 mphClear
11:35 AM64.4 °F50.0 °F59 %30.26 in10.0 miSSW (200°)11.5 mphClear
11:55 AM64.4 °F50.0 °F59 %30.26 in10.0 miSSW (210°)9.2 mphClear
12:15 PM66.2 °F50.0 °F56 %30.24 in10.0 miSW (230°)11.5 mph16.1 mphClear
12:35 PM68.0 °F50.0 °F52 %30.22 in10.0 miSSW (200°)9.2 mphClear
12:55 PM68.0 °F50.0 °F52 %30.21 in10.0 miSSW (200°)10.4 mphClear
1:15 PM69.8 °F50.0 °F49 %30.20 in10.0 miSouth (190°)8.1 mph16.1 mphClear
1:35 PM69.8 °F50.0 °F49 %30.19 in10.0 miSW (220°)9.2 mphClear
1:55 PM69.8 °F50.0 °F49 %30.18 in10.0 miSouth (180°)10.4 mph16.1 mphClear
2:15 PM69.8 °F50.0 °F49 %30.17 in10.0 miSouth (180°)12.7 mph17.3 mphClear
2:35 PM71.6 °F50.0 °F46 %30.17 in10.0 miSouth (190°)9.2 mphClear
2:55 PM71.6 °F50.0 °F46 %30.17 in10.0 miSouth (190°)10.4 mph16.1 mphClear
3:15 PM71.6 °F50.0 °F46 %30.16 in10.0 miSSW (200°)10.4 mphClear
3:35 PM71.6 °F50.0 °F46 %30.16 in10.0 miSouth (190°)12.7 mphClear
3:55 PM71.6 °F50.0 °F46 %30.16 in10.0 miSSW (200°)12.7 mphClear
4:15 PM69.8 °F50.0 °F49 %30.16 in10.0 miSSW (200°)10.4 mphClear
4:35 PM69.8 °F50.0 °F49 %30.15 in10.0 miSouth (190°)12.7 mphClear
4:55 PM69.8 °F50.0 °F49 %30.13 in10.0 miSouth (190°)10.4 mphClear
5:15 PM68.0 °F50.0 °F52 %30.13 in10.0 miSouth (190°)8.1 mphClear
5:35 PM66.2 °F50.0 °F56 %30.14 in10.0 miSouth (190°)6.9 mphClear
5:55 PM62.6 °F50.0 °F63 %30.14 in10.0 miSSE (160°)6.9 mphClear
6:15 PM62.6 °F50.0 °F63 %30.13 in10.0 miSSE (160°)8.1 mphClear
6:35 PM62.6 °F50.0 °F63 %30.14 in10.0 miSSE (150°)6.9 mphClear
6:55 PM60.8 °F50.0 °F68 %30.14 in10.0 miSSE (150°)8.1 mphClear
7:15 PM60.8 °F51.8 °F72 %30.14 in10.0 miSSE (150°)9.2 mphClear
7:35 PM60.8 °F51.8 °F72 %30.15 in10.0 miSE (140°)5.8 mphClear
7:55 PM60.8 °F51.8 °F72 %30.16 in10.0 miSSE (150°)6.9 mphClear
8:15 PM59.0 °F51.8 °F77 %30.16 in10.0 miSSE (160°)9.2 mphClear
8:35 PM59.0 °F53.6 °F82 %30.15 in10.0 miSSE (160°)10.4 mphClear
8:55 PM59.0 °F53.6 °F82 %30.16 in10.0 miSSE (150°)8.1 mphClear
9:15 PM59.0 °F53.6 °F82 %30.17 in10.0 miSSE (160°)6.9 mphClear
9:35 PM57.2 °F51.8 °F82 %30.16 in10.0 miSouth (170°)8.1 mphClear
9:55 PM59.0 °F53.6 °F82 %30.16 in10.0 miSouth (170°)8.1 mphClear
10:15 PM57.2 °F53.6 °F88 %30.16 in10.0 miSSE (160°)6.9 mphClear
10:35 PM57.2 °F53.6 °F88 %30.15 in10.0 miSouth (170°)8.1 mphClear
10:55 PM55.4 °F53.6 °F94 %30.15 in10.0 miSouth (170°)9.2 mphClear
11:15 PM55.4 °F53.6 °F94 %30.15 in10.0 miSSE (160°)8.1 mphClear
11:35 PM53.6 °F51.8 °F94 %30.14 in10.0 miSouth (170°)8.1 mphClear
11:55 PM53.6 °F51.8 °F94 %30.15 in10.0 miSSE (150°)4.6 mphClear
Hourly data recorded from KGYI, located miles away from Sadler, Texas







STORIES FROM OUR PARTNERS